Location: Bayshore Village Mobile Home Park
(26.6945°N, 81.8642°W)
Time: 23:28:31
(UTC+00:00)

NOSS 3-2 (A) - Pass Details

Date: 17 June 2021
Orbit: 774 x 1433 km, 63.4° (Epoch: 17 July)

Event Time Altitude Azimuth Distance (km) Brightness Sun altitude
Rises 00:35:42 0° 210° (SSW) 3,235 6.3 -3.4°
Reaches altitude 10° 00:38:02 10° 211° (SSW) 2,323 5.6 -3.9°
Maximum altitude 00:43:17 78° 298° (WNW) 836 3.4 -4.9°
Drops below altitude 10° 00:49:06 10° 25° (NNE) 2,557 5.8 -6.0°
Sets 00:51:46 0° 26° (NNE) 3,588 6.5 -6.5°
